CW6633 Weather Reports


Display with metric or nautical units.
time (UTC)temp
F
wind
direction
speed
MPH
gust
MPH
rain 1hr
in
rain 24hr
in
rain mn
in
humidity
%
barometer
mb
20210925235016 77 0.0 1.0 0.00 0.00 0.00 19 1016.8
20210925234017 78 0.0 0.0 0.00 0.00 0.00 18 1017.1
20210925233017 79 0.0 2.0 0.00 0.00 0.00 16 1017.1
20210925232017 80 0.0 0.0 0.00 0.00 0.00 16 1017.6
20210925231017 81 0.0 4.0 0.00 0.00 0.00 16 1017.9
20210925230018 82 0.0 2.0 0.00 0.00 0.00 16 1018.0
20210925225016 83 0.0 2.0 0.00 0.00 0.00 16 1018.1
20210925224017 83 0.0 2.0 0.00 0.00 0.00 15 1018.2
20210925223016 84 0.0 1.0 0.00 0.00 0.00 14 1018.6
20210925222017 85 0.0 1.0 0.00 0.00 0.00 14 1018.7
20210925221016 86 0.0 1.0 0.00 0.00 0.00 15 1019.3
20210925220017 86 0.0 1.0 0.00 0.00 0.00 15 1019.5
20210925215017 86 0.0 3.0 0.00 0.00 0.00 13 1019.9
20210925214016 87 0.0 4.0 0.00 0.00 0.00 14 1020.1
20210925213017 86 0.0 1.0 0.00 0.00 0.00 15 1019.9
20210925212016 86 0.0 3.0 0.00 0.00 0.00 15 1020.0
20210925211017 86 0.0 2.0 0.00 0.00 0.00 14 1020.2
20210925210017 86 0.0 3.0 0.00 0.00 0.00 16 1020.7
20210925205017 86 0.0 3.0 0.00 0.00 0.00 16 1020.9
20210925204016 86 0 1.0 4.0 0.00 0.00 0.00 15 1021.6
20210925203017 86 0.0 3.0 0.00 0.00 0.00 15 1021.3
20210925202016 86 0.0 1.0 0.00 0.00 0.00 15 1021.6
20210925201017 86 315 1.0 3.0 0.00 0.00 0.00 15 1021.8
20210925200016 85 338 1.0 3.0 0.00 0.00 0.00 17 1021.9
20210925195016 85 338 1.0 6.0 0.00 0.00 0.00 17 1022.5
20210925194018 85 0.0 3.0 0.00 0.00 0.00 18 1023.1
20210925193016 84 293 1.0 4.0 0.00 0.00 0.00 17 1023.0
20210925192016 84 315 1.0 7.0 0.00 0.00 0.00 15 1023.3
20210925191016 83 270 2.0 10.0 0.00 0.00 0.00 17 1023.3
20210925190016 83 0.0 4.0 0.00 0.00 0.00 17 1023.9
20210925185016 83 0.0 1.0 0.00 0.00 0.00 18 1023.3
20210925184017 82 315 1.0 3.0 0.00 0.00 0.00 19 1023.6
20210925183016 81 315 2.0 5.0 0.00 0.00 0.00 18 1023.7
20210925182016 81 113 1.0 4.0 0.00 0.00 0.00 19 1024.0
20210925181017 80 0.0 5.0 0.00 0.00 0.00 19 1024.2
20210925180016 80 338 1.0 4.0 0.00 0.00 0.00 21 1024.4
20210925175016 79 158 2.0 4.0 0.00 0.00 0.00 21 1024.3
20210925174016 79 0 1.0 5.0 0.00 0.00 0.00 22 1024.3
20210925173021 79 180 1.0 4.0 0.00 0.00 0.00 20 1024.8
20210925172016 79 315 2.0 6.0 0.00 0.00 0.00 21 1025.0
20210925171016 79 0.0 2.0 0.00 0.00 0.00 20 1025.0
20210925170016 78 0.0 4.0 0.00 0.00 0.00 24 1025.3
20210925165016 78 90 1.0 6.0 0.00 0.00 0.00 21 1025.4
20210925164016 77 315 1.0 5.0 0.00 0.00 0.00 22 1025.1
20210925163016 77 315 1.0 5.0 0.00 0.00 0.00 22 1025.3
20210925162016 77 68 1.0 5.0 0.00 0.00 0.00 23 1025.4
20210925161016 77 315 1.0 3.0 0.00 0.00 0.00 22 1025.5
20210925160016 76 0.0 2.0 0.00 0.00 0.00 28 1025.8
20210925155016 75 0.0 0.0 0.00 0.00 0.00 33 1025.6
20210925154016 74 0.0 1.0 0.00 0.00 0.00 30 1025.6
20210925153016 72 0.0 1.0 0.00 0.00 0.00 33 1025.3
20210925152016 70 0.0 0.0 0.00 0.00 0.00 35 1025.1
20210925151016 68 0.0 1.0 0.00 0.00 0.00 34 1024.8
20210925150016 65 0.0 0.0 0.00 0.00 0.00 40 1024.2
20210925145016 61 0.0 0.0 0.00 0.00 0.00 38 1023.7
20210925144016 56 0.0 0.0 0.00 0.00 0.00 47 1022.6
20210925143017 53 0.0 0.0 0.00 0.00 0.00 56 1022.4
20210925142016 51 0.0 0.0 0.00 0.00 0.00 62 1022.0
20210925141016 50 0.0 0.0 0.00 0.00 0.00 66 1021.6
20210925140016 48 0.0 0.0 0.00 0.00 0.00 65 1021.6
20210925135021 48 0.0 0.0 0.00 0.00 0.00 64 1021.6
20210925134016 47 0.0 0.0 0.00 0.00 0.00 63 1021.4
20210925133016 47 0.0 0.0 0.00 0.00 0.00 65 1021.7
20210925132016 47 0.0 0.0 0.00 0.00 0.00 62 1021.6
20210925131016 47 0.0 0.0 0.00 0.00 0.00 59 1021.9
20210925130016 48 0.0 0.0 0.00 0.00 0.00 56 1022.3
20210925125016 48 0.0 0.0 0.00 0.00 0.00 54 1022.5
20210925124016 50 0.0 0.0 0.00 0.00 0.00 51 1022.7
20210925123016 50 0.0 1.0 0.00 0.00 0.00 50 1022.6
20210925122016 49 0.0 1.0 0.00 0.00 0.00 53 1022.5
20210925121016 47 0.0 0.0 0.00 0.00 0.00 58 1022.1
20210925120016 48 0.0 0.0 0.00 0.00 0.00 57 1022.0
20210925115016 48 0.0 1.0 0.00 0.00 0.00 57 1022.5
20210925114016 48 0.0 0.0 0.00 0.00 0.00 57 1022.5
20210925113016 47 0.0 0.0 0.00 0.00 0.00 60 1022.6
20210925112016 48 0.0 0.0 0.00 0.00 0.00 57 1022.5
20210925111016 49 0.0 0.0 0.00 0.00 0.00 55 1023.0
20210925110016 49 0.0 2.0 0.00 0.00 0.00 55 1023.0
20210925105016 48 0.0 0.0 0.00 0.00 0.00 58 1022.9
20210925104016 48 0.0 0.0 0.00 0.00 0.00 59 1022.9
20210925103016 48 0.0 0.0 0.00 0.00 0.00 60 1022.9
20210925102016 48 0.0 0.0 0.00 0.00 0.00 57 1023.3
20210925101016 49 0.0 0.0 0.00 0.00 0.00 57 1023.8
20210925100016 49 0.0 0.0 0.00 0.00 0.00 57 1023.6
20210925095015 50 0.0 0.0 0.00 0.00 0.00 55 1024.0
20210925094016 49 0.0 1.0 0.00 0.00 0.00 59 1023.6
20210925093017 49 0.0 0.0 0.00 0.00 0.00 58 1023.3
20210925092016 48 0.0 0.0 0.00 0.00 0.00 59 1023.3
20210925091016 49 0.0 0.0 0.00 0.00 0.00 57 1023.3
20210925090015 50 0.0 0.0 0.00 0.00 0.00 56 1023.8
20210925085016 51 0.0 0.0 0.00 0.00 0.00 53 1024.2
20210925084016 52 0.0 0.0 0.00 0.00 0.00 52 1024.3
20210925083016 51 0.0 1.0 0.00 0.00 0.00 55 1024.4
20210925082016 51 0.0 0.0 0.00 0.00 0.00 57 1024.4
20210925081015 50 0.0 0.0 0.00 0.00 0.00 60 1024.0
20210925080016 50 0.0 0.0 0.00 0.00 0.00 58 1024.1
20210925075016 51 0.0 0.0 0.00 0.00 0.00 56 1024.5
20210925074016 53 0.0 1.0 0.00 0.00 0.00 53 1024.6
20210925073015 53 0.0 1.0 0.00 0.00 0.00 53 1024.8
20210925072015 52 0.0 3.0 0.00 0.00 0.00 54 1024.8
20210925071016 52 0.0 1.0 0.00 0.00 0.00 54 1024.4
20210925070015 53 0.0 1.0 0.00 0.00 0.00 54 1024.9
20210925065015 51 0.0 1.0 0.00 0.00 0.00 57 1024.6
20210925064016 50 0.0 0.0 0.00 0.00 0.00 59 1023.9
20210925063016 51 0.0 0.0 0.00 0.00 0.00 59 1023.9
20210925062015 51 0.0 0.0 0.00 0.00 0.00 57 1024.0
20210925061015 52 0.0 0.0 0.00 0.00 0.00 55 1024.3
20210925060015 52 0.0 0.0 0.00 0.00 0.00 56 1024.0
20210925055015 52 0.0 0.0 0.00 0.00 0.00 56 1023.9
20210925054015 52 0.0 0.0 0.00 0.00 0.00 54 1023.9
20210925053015 53 0.0 0.0 0.00 0.00 0.00 52 1023.8
20210925052015 54 0.0 0.0 0.00 0.00 0.00 52 1023.9
20210925051015 55 0.0 0.0 0.00 0.00 0.00 51 1024.3
20210925050015 55 0.0 1.0 0.00 0.00 0.00 51 1024.0
20210925045015 54 0.0 1.0 0.00 0.00 0.00 52 1023.6
20210925044015 53 0.0 0.0 0.00 0.00 0.00 54 1023.2
20210925043015 53 0.0 0.0 0.00 0.00 0.00 54 1023.2
20210925042015 53 0.0 1.0 0.00 0.00 0.00 55 1023.2
20210925041015 53 0.0 0.0 0.00 0.00 0.00 56 1023.3
20210925040016 54 0.0 0.0 0.00 0.00 0.00 53 1023.3
20210925035015 55 0.0 1.0 0.00 0.00 0.00 52 1023.3
20210925034015 54 0.0 0.0 0.00 0.00 0.00 54 1023.4
20210925033015 55 0.0 0.0 0.00 0.00 0.00 52 1023.4
20210925032015 55 0.0 0.0 0.00 0.00 0.00 51 1023.2
20210925031015 54 0.0 1.0 0.00 0.00 0.00 52 1023.2
20210925030015 54 0.0 0.0 0.00 0.00 0.00 52 1023.1
20210925025017 55 0.0 0.0 0.00 0.00 0.00 52 1023.5
20210925024017 55 0.0 0.0 0.00 0.00 0.00 51 1022.9
20210925023017 55 0.0 0.0 0.00 0.00 0.00 51 1022.9
20210925022017 55 0.0 0.0 0.00 0.00 0.00 52 1022.5
20210925021015 56 0.0 0.0 0.00 0.00 0.00 51 1022.3
20210925020019 56 0.0 0.0 0.00 0.00 0.00 51 1021.4
20210925015017 57 0.0 0.0 0.00 0.00 0.00 50 1021.2
20210925014017 58 0.0 0.0 0.00 0.00 0.00 49 1021.5
20210925013017 59 0.0 0.0 0.00 0.00 0.00 48 1021.4
20210925012017 60 0.0 0.0 0.00 0.00 0.00 45 1021.3
20210925011018 62 0.0 0.0 0.00 0.00 0.00 42 1021.7
20210925010017 63 0.0 0.0 0.00 0.00 0.00 40 1021.5
20210925005017 64 0.0 1.0 0.00 0.00 0.00 38 1021.8
20210925004017 65 0.0 1.0 0.00 0.00 0.00 38 1021.7
20210925003017 65 0.0 1.0 0.00 0.00 0.00 37 1022.1
20210925002017 66 0.0 2.0 0.00 0.00 0.00 36 1022.0
20210925001017 66 135 2.0 4.0 0.00 0.00 0.00 35 1022.3
20210925000017 66 0.0 1.0 0.00 0.00 0.00 35 1022.1